www.pogodaiklimat.ru

Погода и климат >> Архив погоды >> Ливия >> Куфра


ПОГОДА в Куфре

  • Прогноз погоды в Куфре
  • Монитор погоды в Куфре

АРХИВ ПОГОДЫ в Куфре

Время (UTC), дата Ветер
(напр.,м/с)
 
Видим.   Явления Облачность Т
(С)
Тd
(С)
f
(%)
Тe
(С)
Тes
(С)
Комфортность P
(гПа)
Po
(гПа)
Тmin
(С)
Tmax
(С)
R
(мм)
R24
(мм)
S
(см)
15 12.01 0 н/о н/о +21.0 -11.8 10 1016.9 966.9
18 12.01 СЗ 3 н/о н/о +16.6 -12.0 13 +17 +17 1020.2 969.3 +23.6
21 12.01 0 н/о н/о +12.0 -3.4 34 1022.9 971.1
00 13.01 С 4 н/о н/о +9.3 -1.4 47 +7 +7 1024.7 972.3
03 13.01 0 н/о н/о +8.1 -0.4 55 1025.1 972.5
06 13.01 0 н/о н/о +6.7 -1.0 58 1027.1 974.2 +6.7
09 13.01 С 9 4000 м мгла ясно +10.5 -2.7 39 +7 +8 975.2
12 13.01 С 7 7000 м мгла ясно +13.5 -4.5 28 +12 +14 973.2
15 13.01 0 н/о н/о +13.6 -7.2 23 1024.3 972.7
18 13.01 0 н/о н/о +10.3 -3.4 38 1025.8 973.6 +14.3
21 13.01 З 1 н/о н/о +8.4 -2.9 45 +8 +8 1026.3 973.7
00 14.01 СЗ 2 н/о н/о +6.7 -2.7 51 +5 +5 1025.7 972.8
03 14.01 З 2 н/о н/о +5.0 -3.1 56 +3 +3 1026.1 972.9
06 14.01 0 н/о н/о +3.3 -3.7 60 1027.3 973.7 +2.2
09 14.01 ЮВ 1 н/о н/о +12.7 -2.8 34 +14 +14 1026.0 974.2
12 14.01 штиль 0 20 км ясно +15.0 -6.5 22 +15 +27 опасность
простуды
971.7
15 14.01 С 2 н/о н/о +15.8 -6.5 21 +16 +16 1021.9 970.8
18 14.01 0 н/о н/о +11.2 -6.2 29 1023.9 971.9 +16.2
21 14.01 0 н/о н/о +8.8 -6.2 34 1024.7 972.2
00 15.01 штиль 0 н/о н/о +4.8 -5.9 46 +5 +5 1025.0 971.8
06 15.01 З 2 н/о н/о +4.0 -6.3 47 +2 +2 1024.7 971.3
09 15.01 0 н/о н/о +12.1 -6.4 27 1024.9 973.0
12 15.01 З 5 н/о н/о +16.1 -8.3 18 +15 +15 1022.0 970.9
15 15.01 0 н/о н/о +16.0 -10.7 15 1021.9 970.8
18 15.01 З 2 н/о н/о +11.9 -11.0 19 +12 +12 1024.2 972.3 +16.8
21 15.01 0 н/о н/о +6.4 -10.8 28 1026.1 973.1
00 16.01 Ю 1 н/о н/о +6.0 -10.7 29 +6 +6 1026.5 973.4
03 16.01 З 1 н/о н/о +4.3 -11.4 31 +4 +4 1026.7 973.3
06 16.01 штиль 0 н/о н/о +4.7 -11.9 29 +5 +5 1028.1 974.7 +2.7
09 16.01 СВ 3 н/о н/о +13.6 -2.4 33 +13 +13 1028.3 976.5
12 16.01 СВ 3 н/о н/о +17.8 +1.3 33 +18 +18 1025.3 974.4
15 16.01 С 3 н/о н/о +17.7 -1.1 28 +18 +18 1024.7 973.8
18 16.01 СВ 2 н/о н/о +13.4 -0.3 39 +13 +13 1026.5 974.8 +18.5
21 16.01 СВ 2 н/о н/о +9.6 -3.0 41 +9 +9 1028.5 976.0
00 17.01 СВ 3 н/о н/о +7.9 -2.4 48 +6 +6 1028.7 975.9
03 17.01 В 3 н/о н/о +4.6 -3.0 58 +1 +1 1028.6 975.2
06 17.01 В 2 н/о н/о +4.3 -3.7 56 +3 +3 1029.5 976.0 +3.4
09 17.01 В 6 н/о н/о +13.1 -5.5 27 +11 +11 1028.6 976.7
12 17.01 В 4 20 км 3/0
[Cs]
+16.7 -1.9 28 +16 +23 974.1
15 17.01 штиль 0 20 км 4/0
[Cs]
+17.7 -6.6 18 +18 +19 973.5
18 17.01 СВ 1 н/о н/о +13.0 -5.1 28 +14 +14 1025.3 973.5 +18.8
21 17.01 СВ 1 н/о н/о +10.5 -5.5 32 +11 +11 1026.2 974.0
00 18.01 В 1 н/о н/о +8.0 -5.8 37 +8 +8 1025.8 973.1
03 18.01 В 2 н/о н/о +6.0 -6.0 42 +5 +5 1025.5 972.5
06 18.01 Ю 2 н/о н/о +4.7 -6.0 46 +3 +3 1026.5 973.2 +2.9
09 18.01 0 н/о н/о +12.4 -6.1 27 1026.2 974.3
12 18.01 0 н/о н/о +18.9 -6.7 17 1022.8 972.2
15 18.01 В 1 н/о н/о +19.6 -6.1 17 +21 +21 комфорт 1022.1 971.6
18 18.01 В 2 н/о н/о +13.8 -4.9 27 +14 +14 1023.9 972.4 +21.5
21 18.01 СВ 1 н/о н/о +11.3 -5.2 31 +12 +12 1024.5 972.5
00 19.01 СВ 2 н/о н/о +9.4 -6.1 33 +9 +9 1024.1 971.8
03 19.01 штиль 0 н/о н/о +7.8 -4.0 43 +8 +8 1023.8 971.2
06 19.01 штиль 0 н/о н/о +7.5 -5.2 40 +7 +7 1024.7 972.0 +5.3
09 19.01 Ю 2 н/о н/о +16.3 -7.4 19 +17 +17 1024.2 973.1
12 19.01 Ю 3 20 км 6/0
[Ci]
+19.8 -8.2 14 +20 +27 971.6

 

Местоположение метеостанции Куфра (Ливия): широта 24.22 долгота 23.30 высота над уровнем моря 436 м.

В архиве по умолчанию представлена погода в Куфре за последнюю неделю. Архивные данные за месяц целиком и за предыдущие месяцы, начиная с января 2011 года, Вы можете получить, выбрав интересующий диапазон дат из раскрывающегося списка и нажав кнопку "Ввод!".


*Определитесь, кто Вы:
робот инопланетянин человек

Внимание! Время в таблицах - всемирное. Для получения местного времени необходимо прибавить поправку, которая равна 1 ч.

Смотрите также архив погоды в соседних городах и на ближайших метеорологических станциях:

Погода в Тазирбу (Ливия) (281 км)
Погода в Джалу (Ливия) (562 км)
Погода в Фарафре (Египет) (565 км)
Погода в Сиве (Египет) (589 км)
Погода в Дахле (Египет) (592 км)
Погода в Мараде (Ливия) (704 км)
Погода в Бахарии (Египет) (722 км)
Погода в Харге (Египет) (742 км)
Погода в Фая (Чад) (814 км)
Погода в Асьюте (Египет) (835 км)

Пояснения к столбцам:

Ветер - указаны скорость ветра в м/с - средняя за 10 мин, порывы в срок и между сроками (в фигурных скобках) и направление, откуда дует ветер: С - северный, СВ - северо-восточный, В - восточный, ЮВ - юго-восточный, Ю - южный, ЮЗ - юго-западный, З - западный, СЗ - северо-западный.
Видимость - горизонтальная дальность видимости в метрах или километрах. При видимости от 1 до 10 км при отсутствии осадков обычно наблюдается дымка, при ухудшении видимости до 1 км и менее - туман. В сухую погоду видимость может ухудшаться дымом, пылью или мглою.
Явления - указаны атмосферные явления, наблюдавшиеся в срок или в последний час перед сроком; фигурными скобками обозначены явления, наблюдавшиеся между сроками (за 1-3 часа до срока); квадратными скобками обозначены град или гололедные отложения с указанием их диаметра в мм.
Облачность - указаны через наклонную черту общая и нижняя облачность в баллах и высота нижней границы облаков в метрах; квадратными скобками обозначены формы облаков: Ci - перистые, Cs - перисто-слоистые, Cc - перисто-кучевые, Ac - высококучевые, As - высокослоистые, Sc - слоисто-кучевые, Ns - слоисто-дождевые, Cu - кучевые, Cb - кучево-дождевые. Подробнее классификацию облаков см. в Атласе облаков (PDF).
T - Температура воздуха - температура, измеренная на высоте 2 м над землей.
Td - Температура точки росы - температура, при понижении до которой содержащийся в воздухе водяной пар достигнет насыщения.
f - Относительная влажность воздуха - влажноcть воздуха, измеренная на высоте 2 м над землей.
Te - Эффективная температура - температура, которую ощущает одетый по сезону человек в тени. Характеристика душности погоды. При расчете учитывается влияние влажности воздуха и скорости ветра на теплоощущения человека.
Tes - Эффективная температура на солнце - температура, которую ощущает человек, с поправкой на солнечный нагрев. Характеристика знойности погоды. Зависит от высоты солнца над горизонтом, облачности и скорости ветра. Ночью, в пасмурную погоду, а также при ветре 12 м/с и более поправка равна нулю.
P - Атмосферное давление - приведенное к уровню моря атмосферное давление.
Po - Атмосферное давление - измеренное на уровне метеостанции атмосферное давление.
Tmin - Минимальная температура - минимум температуры воздуха на высоте 2 м над землей.
Tmax - Максимальная температура - максимум температуры воздуха на высоте 2 м над землей.
R - Количество осадков - Количество выпавших осадков за период времени, мм. При наведении курсора мыши на число - период времени, за который выпало указанное количество осадков.
R24 - Количество осадков - Количество выпавших осадков за 24 часа, мм.
S - Снежный покров - Высота снежного покрова, см. При наведении курсора мыши на число - состояние снежного покрова и степень покрытия местности в баллах.